Location: Jonen
(52.7189°N, 6.0177°E)
Time: 16:35:42
(UTC+00:00)

ACS3 Solar Sail - Visible Passes

Search period start: 13 May 2026 00:00
Search period end: 23 May 2026 00:00
Orbit: 894 x 947 km, 97.2° (Epoch: 12 May)

Date Brightness Start Highest point End Pass type
(mag) Time Alt. Az. Time Alt. Az. Time Alt. Az.
13 May 1.7 00:53:28 10° N 00:59:27 79° WNW 01:03:08 25° SSW visible
13 May 3.5 02:36:54 10° N 02:40:57 19° NW 02:45:00 10° W visible
13 May 3.2 23:20:20 10° NNE 23:25:15 26° E 23:28:30 17° SE visible
14 May 1.8 01:02:11 10° N 01:08:08 69° WNW 01:11:59 23° SSW visible
14 May 3.6 02:45:49 10° NNW 02:49:28 17° NW 02:53:09 10° W visible
14 May 3.0 23:28:51 10° NNE 23:34:03 30° E 23:37:20 19° SE visible
15 May 2.0 01:10:54 10° N 01:16:46 60° WNW 01:20:50 21° SW visible
15 May 3.7 02:54:46 10° NNW 02:57:59 15° NW 03:01:13 10° W visible
15 May 2.8 23:37:25 10° NNE 23:42:50 35° E 23:46:10 20° SE visible
16 May 2.2 01:19:38 10° N 01:25:24 52° WNW 01:29:40 18° SW visible
16 May 2.6 23:45:59 10° NNE 23:51:36 40° E 23:55:00 22° SSE visible
17 May 2.4 01:28:22 10° N 01:34:01 45° WNW 01:38:30 16° SW visible
17 May 2.3 23:54:34 10° NNE 00:00:20 46° E 00:03:50 23° SSE visible
18 May 2.6 01:37:07 10° N 01:42:37 40° WNW 01:47:19 14° SW visible
18 May 4.0 22:24:32 10° ENE 22:25:19 10° ENE 22:26:06 10° E visible
19 May 2.1 00:03:11 10° NNE 00:09:03 54° E 00:12:39 24° SSE visible
19 May 2.7 01:45:52 10° N 01:51:12 35° WNW 01:56:09 12° WSW visible
19 May 3.8 22:31:47 10° NE 22:34:11 12° ENE 22:36:34 10° ESE visible
20 May 2.0 00:11:49 10° NNE 00:17:46 62° E 00:21:28 24° S visible
20 May 2.9 01:54:38 10° N 01:59:46 31° WNW 02:04:55 10° WSW visible
20 May 3.8 22:39:48 10° NE 22:43:02 15° E 22:46:15 10° ESE visible
21 May 1.8 00:20:27 10° NNE 00:26:28 72° E 00:30:17 24° S visible
21 May 3.1 02:03:25 10° N 02:08:19 27° WNW 02:13:14 10° WSW visible
21 May 3.6 22:48:01 10° NE 22:51:52 17° E 22:55:36 10° ESE visible
22 May 1.7 00:29:06 10° NNE 00:35:08 82° ESE 00:39:05 23° S visible
22 May 3.3 02:12:13 10° N 02:16:51 24° NW 02:21:30 10° WSW visible
22 May 3.5 22:56:21 10° NE 23:00:40 20° E 23:04:24 12° SE visible
